START_TIME,STEP,MOV.,M34,t_acc.,L5,t_acc.,L18,t_acc.,L14,t_acc.
1979-07-01 09:00:25.670 ,0,0,0.,12.0,0.,12.0,0.,12.0,0.,12.0
1979-07-01 09:00:37.670 ,0,0,0.,12.0,0.,12.0,0.,12.0,0.,12.0
1979-07-01 09:00:49.670 ,0,1,0.,12.0,0.,12.0,0.,12.0,0.,12.0
1979-07-01 09:01:01.670 ,0,1,0.,12.0,0.,12.0,0.,12.0,0.,12.0
1979-07-01 09:01:13.670 ,0,0,0.,12.0,0.,12.0,0.,12.0,0.,12.0
1979-07-01 09:01:25.670 ,0,0,0.,12.0,0.,12.0,0.,12.0,0.,12.0
1979-07-01 09:01:37.670 ,1,1,0.,12.0,0.,12.0,0.,12.0,0.,12.0
1979-07-01 09:01:49.670 ,1,1,0.,12.0,0.,12.0,0.,12.0,0.,12.0
1979-07-01 09:02:01.670 ,1,0,0.,12.0,0.,12.0,0.,12.0,0.,12.0
1979-07-01 09:02:13.670 ,1,0,0.,12.0,0.,12.0,0.,12.0,0.,12.0
1979-07-01 09:02:25.670 ,2,1,0.,12.0,0.,12.0,0.,12.0,0.,12.0
1979-07-01 09:02:37.670 ,2,1,0.,12.0,0.,12.0,0.,12.0,0.,12.0
1979-07-01 09:02:49.670 ,2,0,0.,12.0,0.,12.0,0.,12.0,0.,12.0
1979-07-01 09:03:01.670 ,2,0,0.,12.0,0.,12.0,0.,12.0,0.,12.0
1979-07-01 09:03:13.670 ,3,1,0.,12.0,0.,12.0,0.,12.0,0.,12.0
1979-07-01 09:03:25.670 ,3,1,0.,12.0,0.,12.0,0.,12.0,0.,12.0
1979-07-01 09:03:37.670 ,3,0,0.,12.0,0.,12.0,0.,12.0,0.,12.0
1979-07-01 09:03:49.670 ,3,0,0.,12.0,0.,12.0,0.,12.0,0.,12.0
1979-07-01 09:04:01.670 ,4,1,0.,12.0,0.,12.0,0.,12.0,0.,12.0
1979-07-01 09:04:13.670 ,4,1,0.,12.0,0.,12.0,0.,12.0,0.,12.0
1979-07-01 09:04:25.670 ,0,0,0.,12.0,0.,12.0,0.,12.0,0.,12.0
1979-07-01 09:04:37.670 ,0,0,1.,12.0,0.,12.0,0.,12.0,0.,12.0
1979-07-01 09:04:49.670 ,5,1,0.,12.0,0.,12.0,0.,12.0,0.,12.0
1979-07-01 09:05:01.670 ,5,1,0.,12.0,0.,12.0,0.,12.0,0.,12.0
1979-07-01 09:05:13.670 ,5,0,0.,12.0,0.,12.0,0.,12.0,0.,12.0
1979-07-01 09:05:25.670 ,5,0,0.,12.0,0.,12.0,0.,12.0,0.,12.0
1979-07-01 09:05:37.670 ,6,1,0.,12.0,0.,12.0,0.,12.0,0.,12.0
1979-07-01 09:05:49.670 ,6,1,0.,12.0,0.,12.0,0.,12.0,0.,12.0
1979-07-01 09:06:01.670 ,6,0,0.,12.0,0.,12.0,0.,12.0,0.,12.0
1979-07-01 09:06:13.670 ,6,0,0.,12.0,0.,12.0,0.,12.0,0.,12.0
1979-07-01 09:06:25.670 ,7,0,0.,12.0,0.,12.0,0.,12.0,0.,12.0
1979-07-01 09:06:37.670 ,7,0,0.,12.0,0.,12.0,0.,12.0,0.,12.0
1979-07-01 09:06:49.670 ,7,0,0.,12.0,0.,12.0,0.,12.0,0.,12.0
1979-07-01 09:07:01.670 ,7,0,0.,12.0,0.,12.0,0.,12.0,0.,12.0
1979-07-01 09:07:13.670 ,4,1,0.,12.0,0.,12.0,0.,12.0,0.,12.0
1979-07-01 09:07:25.670 ,4,1,1.,12.0,0.,12.0,0.,12.0,0.,12.0
1979-07-01 09:07:37.670 ,0,1,0.,12.0,0.,12.0,0.,12.0,0.,12.0
1979-07-01 09:07:49.670 ,0,1,0.,12.0,0.,12.0,0.,12.0,0.,12.0
1979-07-01 09:08:01.670 ,3,1,0.,12.0,0.,12.0,0.,12.0,0.,12.0
1979-07-01 09:08:13.670 ,3,1,0.,12.0,0.,12.0,0.,12.0,0.,12.0
1979-07-01 09:08:25.670 ,7,1,0.,12.0,0.,12.0,0.,12.0,0.,12.0
1979-07-01 09:08:37.670 ,7,1,0.,12.0,0.,12.0,0.,12.0,0.,12.0
1979-07-01 09:09:37.670 ,0,0,0.,12.0,0.,12.0,0.,12.0,0.,12.0
1979-07-01 09:09:49.670 ,0,0,0.,12.0,0.,12.0,0.,12.0,0.,12.0
1979-07-01 09:10:01.670 ,7,1,0.,12.0,0.,12.0,0.,12.0,0.,12.0
1979-07-01 09:10:13.670 ,7,1,0.,12.0,0.,12.0,0.,12.0,0.,12.0
1979-07-01 09:10:25.670 ,4,1,0.,12.0,0.,12.0,0.,12.0,0.,12.0
1979-07-01 09:10:37.670 ,4,1,0.,12.0,0.,12.0,0.,12.0,0.,12.0
1979-07-01 09:10:49.670 ,0,1,0.,12.0,0.,12.0,0.,12.0,0.,12.0
1979-07-01 09:11:01.670 ,0,1,0.,12.0,0.,12.0,0.,12.0,0.,12.0
1979-07-01 09:11:13.670 ,3,1,0.,12.0,0.,12.0,0.,12.0,0.,12.0
1979-07-01 09:11:25.670 ,3,1,0.,12.0,0.,12.0,0.,12.0,0.,12.0
1979-07-01 09:11:37.670 ,7,1,0.,12.0,0.,12.0,0.,12.0,0.,12.0
1979-07-01 09:11:49.670 ,7,1,0.,12.0,0.,12.0,0.,12.0,0.,12.0
1979-07-01 09:12:01.670 ,4,1,0.,12.0,0.,12.0,0.,12.0,0.,12.0
1979-07-01 09:12:13.670 ,4,1,0.,12.0,0.,12.0,0.,12.0,0.,12.0
1979-07-01 09:12:25.670 ,0,1,0.,12.0,0.,12.0,0.,12.0,0.,12.0
1979-07-01 09:12:37.670 ,0,1,0.,12.0,0.,12.0,0.,12.0,0.,12.0
1979-07-01 09:12:49.670 ,3,1,0.,12.0,0.,12.0,0.,12.0,0.,12.0
1979-07-01 09:13:01.670 ,3,1,0.,12.0,0.,12.0,0.,12.0,0.,12.0
1979-07-01 09:13:13.670 ,7,1,0.,12.0,0.,12.0,0.,12.0,0.,12.0
1979-07-01 09:13:25.670 ,7,1,0.,12.0,0.,12.0,0.,12.0,0.,12.0
1979-07-01 09:13:37.670 ,4,1,0.,12.0,0.,12.0,0.,12.0,0.,12.0
1979-07-01 09:13:49.670 ,4,1,0.,12.0,0.,12.0,0.,12.0,0.,12.0
1979-07-01 09:14:01.670 ,0,1,0.,12.0,0.,12.0,0.,12.0,0.,12.0
1979-07-01 09:14:13.670 ,0,1,0.,12.0,0.,12.0,0.,12.0,0.,12.0
1979-07-01 09:14:25.670 ,3,1,0.,12.0,0.,12.0,0.,12.0,0.,12.0
1979-07-01 09:14:37.670 ,3,1,0.,12.0,0.,12.0,0.,12.0,0.,12.0
1979-07-01 09:14:49.670 ,7,1,0.,12.0,0.,12.0,0.,12.0,0.,12.0
1979-07-01 09:15:01.670 ,7,1,0.,12.0,0.,12.0,0.,12.0,0.,12.0
1979-07-01 09:15:13.670 ,4,1,0.,12.0,0.,12.0,0.,12.0,0.,12.0
1979-07-01 09:15:25.670 ,4,1,0.,12.0,0.,12.0,0.,12.0,0.,12.0
1979-07-01 09:15:37.670 ,0,1,0.,12.0,0.,12.0,0.,12.0,0.,12.0
1979-07-01 09:15:49.670 ,0,1,0.,12.0,0.,12.0,0.,12.0,0.,12.0
1979-07-01 09:16:01.670 ,3,1,0.,12.0,0.,12.0,0.,12.0,0.,12.0
1979-07-01 09:16:13.670 ,3,1,0.,12.0,0.,12.0,0.,12.0,0.,12.0
1979-07-01 09:16:25.670 ,7,1,0.,12.0,0.,12.0,0.,12.0,0.,12.0
1979-07-01 09:16:37.670 ,7,1,0.,12.0,0.,12.0,0.,12.0,0.,12.0
1979-07-01 09:16:49.670 ,4,1,0.,12.0,0.,12.0,0.,12.0,0.,12.0
1979-07-01 09:17:01.670 ,4,1,0.,12.0,0.,12.0,0.,12.0,0.,12.0
1979-07-01 09:17:13.670 ,0,1,0.,12.0,0.,12.0,0.,12.0,0.,12.0
1979-07-01 09:17:25.670 ,0,1,0.,12.0,0.,12.0,0.,12.0,0.,12.0
1979-07-01 09:17:37.670 ,0,0,0.,12.0,0.,12.0,0.,12.0,0.,12.0
1979-07-01 09:17:49.670 ,0,0,0.,12.0,0.,12.0,0.,12.0,0.,12.0
1979-07-01 09:18:01.670 ,0,0,0.,12.0,0.,12.0,0.,12.0,0.,12.0
1979-07-01 09:18:13.670 ,0,0,0.,12.0,0.,12.0,0.,12.0,0.,12.0
1979-07-01 09:18:25.670 ,5,1,0.,12.0,0.,12.0,0.,12.0,0.,12.0
1979-07-01 09:18:37.670 ,5,1,0.,12.0,0.,12.0,0.,12.0,0.,12.0
1979-07-01 09:18:49.670 ,5,0,0.,12.0,0.,12.0,0.,12.0,0.,12.0
1979-07-01 09:19:01.670 ,5,0,0.,12.0,0.,12.0,0.,12.0,0.,12.0
1979-07-01 09:19:13.670 ,4,1,0.,12.0,0.,12.0,0.,12.0,0.,12.0
1979-07-01 09:19:25.670 ,4,1,1.,12.0,0.,12.0,0.,12.0,0.,12.0
1979-07-01 09:19:37.670 ,4,0,0.,12.0,0.,12.0,0.,12.0,0.,12.0
1979-07-01 09:19:49.670 ,4,0,0.,12.0,0.,12.0,0.,12.0,0.,12.0
1979-07-01 09:20:01.670 ,3,1,0.,12.0,0.,12.0,0.,12.0,0.,12.0
1979-07-01 09:20:13.670 ,3,1,0.,12.0,0.,12.0,0.,12.0,0.,12.0
1979-07-01 09:20:25.670 ,3,0,0.,12.0,0.,12.0,0.,12.0,0.,12.0
1979-07-01 09:20:37.670 ,3,0,0.,12.0,0.,12.0,0.,12.0,0.,12.0
1979-07-01 09:20:49.670 ,2,1,0.,12.0,0.,12.0,0.,12.0,0.,12.0
1979-07-01 09:21:01.670 ,2,1,0.,12.0,0.,12.0,0.,12.0,0.,12.0
1979-07-01 09:21:13.670 ,2,0,0.,12.0,0.,12.0,0.,12.0,0.,12.0
1979-07-01 09:21:25.670 ,2,0,0.,12.0,0.,12.0,0.,12.0,0.,12.0
1979-07-01 09:21:37.670 ,1,1,0.,12.0,0.,12.0,0.,12.0,0.,12.0
1979-07-01 09:21:49.670 ,1,1,0.,12.0,0.,12.0,0.,12.0,0.,12.0
1979-07-01 09:22:01.670 ,1,0,0.,12.0,0.,12.0,0.,12.0,0.,12.0
1979-07-01 09:22:13.670 ,1,0,0.,12.0,0.,12.0,0.,12.0,0.,12.0
1979-07-01 09:22:25.670 ,0,1,0.,12.0,0.,12.0,0.,12.0,0.,12.0
1979-07-01 09:22:37.670 ,0,1,0.,12.0,0.,12.0,0.,12.0,0.,12.0
1979-07-01 09:22:49.670 ,0,0,0.,12.0,0.,12.0,0.,12.0,0.,12.0
1979-07-01 09:23:01.670 ,0,0,0.,12.0,0.,12.0,0.,12.0,0.,12.0
1979-07-01 09:23:13.670 ,0,1,0.,12.0,0.,12.0,0.,12.0,0.,12.0
1979-07-01 09:23:25.670 ,0,1,0.,12.0,0.,12.0,0.,12.0,0.,12.0
1979-07-01 09:23:37.670 ,0,0,0.,12.0,0.,12.0,0.,12.0,0.,12.0
1979-07-01 09:23:49.670 ,0,0,0.,12.0,0.,12.0,0.,12.0,0.,12.0
1979-07-01 09:24:01.670 ,1,1,0.,12.0,0.,12.0,0.,12.0,0.,12.0
1979-07-01 09:24:13.670 ,1,1,0.,12.0,0.,12.0,0.,12.0,0.,12.0
1979-07-01 09:24:25.670 ,1,0,0.,12.0,0.,12.0,0.,12.0,0.,12.0
1979-07-01 09:24:37.670 ,1,0,0.,12.0,0.,12.0,0.,12.0,0.,12.0
1979-07-01 09:24:49.670 ,2,1,0.,12.0,0.,12.0,0.,12.0,0.,12.0
1979-07-01 09:25:01.670 ,2,1,0.,12.0,0.,12.0,0.,12.0,0.,12.0
1979-07-01 09:25:13.670 ,2,0,0.,12.0,0.,12.0,0.,12.0,0.,12.0
1979-07-01 09:25:25.670 ,2,0,0.,12.0,0.,12.0,0.,12.0,0.,12.0
1979-07-01 09:25:37.670 ,3,1,0.,12.0,0.,12.0,0.,12.0,0.,12.0
1979-07-01 09:25:49.670 ,3,1,0.,12.0,0.,12.0,0.,12.0,0.,12.0
1979-07-01 09:26:01.670 ,3,0,0.,12.0,0.,12.0,0.,12.0,0.,12.0
1979-07-01 09:26:13.670 ,3,0,0.,12.0,0.,12.0,0.,12.0,0.,12.0
1979-07-01 09:26:25.670 ,4,1,0.,12.0,0.,12.0,0.,12.0,0.,12.0
1979-07-01 09:26:37.670 ,4,1,0.,12.0,0.,12.0,0.,12.0,0.,12.0
1979-07-01 09:26:49.670 ,4,0,0.,12.0,0.,12.0,0.,12.0,0.,12.0
1979-07-01 09:27:01.670 ,4,0,0.,12.0,0.,12.0,0.,12.0,0.,12.0
1979-07-01 09:27:13.670 ,5,1,0.,12.0,0.,12.0,0.,12.0,0.,12.0
1979-07-01 09:27:25.670 ,5,1,0.,12.0,0.,12.0,0.,12.0,0.,12.0
1979-07-01 09:27:37.670 ,5,0,0.,12.0,0.,12.0,0.,12.0,0.,12.0
1979-07-01 09:27:49.670 ,5,0,0.,12.0,0.,12.0,0.,12.0,0.,12.0
1979-07-01 09:28:01.670 ,6,1,0.,12.0,0.,12.0,0.,12.0,0.,12.0
1979-07-01 09:28:13.670 ,6,1,0.,12.0,0.,12.0,0.,12.0,0.,12.0
1979-07-01 09:28:25.670 ,6,0,0.,12.0,0.,12.0,0.,12.0,0.,12.0
1979-07-01 09:28:37.670 ,6,0,0.,12.0,0.,12.0,0.,12.0,0.,12.0
1979-07-01 09:28:49.670 ,7,1,0.,12.0,0.,12.0,0.,12.0,0.,12.0
1979-07-01 09:29:01.670 ,7,1,0.,12.0,0.,12.0,0.,12.0,0.,12.0
1979-07-01 09:29:13.670 ,7,0,0.,12.0,0.,12.0,0.,12.0,0.,12.0
1979-07-01 09:29:25.670 ,7,0,0.,12.0,0.,12.0,0.,12.0,0.,12.0
1979-07-01 09:29:37.670 ,7,1,0.,12.0,0.,12.0,0.,12.0,0.,12.0
1979-07-01 09:29:49.670 ,7,1,0.,12.0,0.,12.0,0.,12.0,0.,12.0
1979-07-01 09:30:01.670 ,7,0,0.,12.0,0.,12.0,0.,12.0,0.,12.0
1979-07-01 09:30:13.670 ,7,0,0.,12.0,0.,12.0,0.,12.0,0.,12.0
1979-07-01 09:30:25.670 ,6,1,0.,12.0,0.,12.0,0.,12.0,0.,12.0
1979-07-01 09:30:37.670 ,6,1,0.,12.0,0.,12.0,0.,12.0,0.,12.0
1979-07-01 09:30:49.670 ,6,0,0.,12.0,0.,12.0,0.,12.0,0.,12.0
1979-07-01 09:31:01.670 ,6,0,0.,12.0,0.,12.0,0.,12.0,0.,12.0
1979-07-01 09:31:13.670 ,5,1,0.,12.0,0.,12.0,0.,12.0,0.,12.0
1979-07-01 09:31:25.670 ,5,1,0.,12.0,0.,12.0,0.,12.0,0.,12.0
1979-07-01 09:31:37.670 ,5,0,0.,12.0,0.,12.0,0.,12.0,0.,12.0
1979-07-01 09:31:49.670 ,5,0,0.,12.0,0.,12.0,0.,12.0,0.,12.0
1979-07-01 09:32:01.670 ,4,1,0.,12.0,0.,12.0,0.,12.0,0.,12.0
1979-07-01 09:32:13.670 ,4,1,0.,12.0,0.,12.0,0.,12.0,0.,12.0
1979-07-01 09:32:25.670 ,4,0,0.,12.0,0.,12.0,0.,12.0,0.,12.0
1979-07-01 09:32:37.670 ,4,0,0.,12.0,0.,12.0,0.,12.0,0.,12.0
1979-07-01 09:32:49.670 ,3,1,0.,12.0,0.,12.0,0.,12.0,0.,12.0
1979-07-01 09:33:01.670 ,3,1,0.,12.0,0.,12.0,0.,12.0,0.,12.0
1979-07-01 09:33:13.670 ,3,0,0.,12.0,0.,12.0,0.,12.0,0.,12.0
1979-07-01 09:33:25.670 ,3,0,0.,12.0,0.,12.0,0.,12.0,0.,12.0
1979-07-01 09:33:37.670 ,2,1,0.,12.0,0.,12.0,0.,12.0,0.,12.0
1979-07-01 09:33:49.670 ,2,1,0.,12.0,0.,12.0,0.,12.0,0.,12.0
1979-07-01 09:34:01.670 ,2,0,0.,12.0,0.,12.0,0.,12.0,0.,12.0
1979-07-01 09:34:13.670 ,2,0,0.,12.0,0.,12.0,0.,12.0,0.,12.0
1979-07-01 09:34:25.670 ,1,1,0.,12.0,0.,12.0,0.,12.0,0.,12.0
1979-07-01 09:34:37.670 ,1,1,0.,12.0,0.,12.0,0.,12.0,0.,12.0
1979-07-01 09:34:49.670 ,1,0,0.,12.0,0.,12.0,0.,12.0,0.,12.0
1979-07-01 09:35:01.670 ,1,0,0.,12.0,0.,12.0,0.,12.0,0.,12.0
1979-07-01 09:35:13.670 ,0,1,0.,12.0,0.,12.0,0.,12.0,0.,12.0
1979-07-01 09:35:25.670 ,0,1,0.,12.0,0.,12.0,0.,12.0,0.,12.0
1979-07-01 09:35:37.670 ,0,0,0.,12.0,0.,12.0,0.,12.0,0.,12.0
1979-07-01 09:35:49.670 ,0,0,0.,12.0,0.,12.0,0.,12.0,0.,12.0
1979-07-01 09:36:01.670 ,0,1,0.,12.0,0.,12.0,0.,12.0,0.,12.0
1979-07-01 09:36:13.670 ,0,1,0.,12.0,0.,12.0,0.,12.0,0.,12.0
1979-07-01 09:36:25.670 ,0,0,0.,12.0,0.,12.0,0.,12.0,0.,12.0
1979-07-01 09:36:37.670 ,0,0,0.,12.0,0.,12.0,0.,12.0,0.,12.0
1979-07-01 09:36:49.670 ,1,1,0.,12.0,0.,12.0,0.,12.0,0.,12.0
1979-07-01 09:37:01.670 ,1,1,0.,12.0,0.,12.0,0.,12.0,0.,12.0
1979-07-01 09:37:13.670 ,1,0,0.,12.0,0.,12.0,0.,12.0,0.,12.0
1979-07-01 09:37:25.670 ,1,0,0.,12.0,0.,12.0,0.,12.0,0.,12.0
1979-07-01 09:37:37.670 ,2,1,0.,12.0,0.,12.0,0.,12.0,0.,12.0
1979-07-01 09:37:49.670 ,2,1,0.,12.0,0.,12.0,0.,12.0,0.,12.0
1979-07-01 09:38:01.670 ,2,0,0.,12.0,0.,12.0,0.,12.0,0.,12.0
1979-07-01 09:38:13.670 ,2,0,0.,12.0,0.,12.0,0.,12.0,0.,12.0
1979-07-01 09:38:25.670 ,3,1,0.,12.0,0.,12.0,0.,12.0,0.,12.0
1979-07-01 09:38:37.670 ,3,1,0.,12.0,0.,12.0,0.,12.0,0.,12.0
1979-07-01 09:38:49.670 ,3,0,0.,12.0,0.,12.0,0.,12.0,0.,12.0
1979-07-01 09:39:01.670 ,3,0,0.,12.0,0.,12.0,0.,12.0,0.,12.0
1979-07-01 09:39:13.670 ,4,1,0.,12.0,0.,12.0,0.,12.0,0.,12.0
1979-07-01 09:39:25.670 ,4,1,0.,12.0,0.,12.0,0.,12.0,0.,12.0
1979-07-01 09:39:37.670 ,4,0,0.,12.0,0.,12.0,0.,12.0,0.,12.0
1979-07-01 09:39:49.670 ,4,0,1.,12.0,0.,12.0,0.,12.0,0.,12.0
1979-07-01 09:40:01.670 ,5,1,0.,12.0,0.,12.0,0.,12.0,0.,12.0
1979-07-01 09:40:13.670 ,5,1,0.,12.0,0.,12.0,0.,12.0,0.,12.0
1979-07-01 09:40:25.670 ,5,0,0.,12.0,0.,12.0,0.,12.0,0.,12.0
1979-07-01 09:40:37.670 ,5,0,0.,12.0,0.,12.0,0.,12.0,0.,12.0
1979-07-01 09:40:49.670 ,6,1,0.,12.0,0.,12.0,0.,12.0,0.,12.0
1979-07-01 09:41:01.670 ,6,1,0.,12.0,0.,12.0,0.,12.0,0.,12.0
1979-07-01 09:41:13.670 ,6,0,0.,12.0,0.,12.0,0.,12.0,0.,12.0
1979-07-01 09:41:25.670 ,6,0,0.,12.0,0.,12.0,0.,12.0,0.,12.0
1979-07-01 09:41:37.670 ,7,1,0.,12.0,0.,12.0,0.,12.0,0.,12.0
1979-07-01 09:41:49.670 ,7,1,0.,12.0,0.,12.0,0.,12.0,0.,12.0
1979-07-01 09:42:01.670 ,7,0,0.,12.0,0.,12.0,0.,12.0,0.,12.0
1979-07-01 09:42:13.670 ,7,0,0.,12.0,0.,12.0,0.,12.0,0.,12.0
1979-07-01 09:42:25.670 ,7,1,0.,12.0,0.,12.0,0.,12.0,0.,12.0
1979-07-01 09:42:37.670 ,7,1,0.,12.0,0.,12.0,0.,12.0,0.,12.0
1979-07-01 09:42:49.670 ,7,0,0.,12.0,0.,12.0,0.,12.0,0.,12.0
1979-07-01 09:43:01.670 ,7,0,0.,12.0,0.,12.0,0.,12.0,0.,12.0
1979-07-01 09:43:13.670 ,6,1,0.,12.0,0.,12.0,0.,12.0,0.,12.0
1979-07-01 09:43:25.670 ,6,1,0.,12.0,0.,12.0,0.,12.0,0.,12.0
1979-07-01 09:43:37.670 ,6,0,0.,12.0,0.,12.0,0.,12.0,0.,12.0
1979-07-01 09:43:49.670 ,6,0,0.,12.0,0.,12.0,0.,12.0,0.,12.0
1979-07-01 09:44:01.670 ,5,1,0.,12.0,0.,12.0,0.,12.0,1.,12.0
1979-07-01 09:44:13.670 ,5,1,0.,12.0,0.,12.0,0.,12.0,0.,12.0
1979-07-01 09:44:25.670 ,5,0,0.,12.0,0.,12.0,0.,12.0,0.,12.0
1979-07-01 09:44:37.670 ,5,0,0.,12.0,0.,12.0,0.,12.0,0.,12.0
1979-07-01 09:44:49.670 ,4,1,0.,12.0,0.,12.0,0.,12.0,0.,12.0
1979-07-01 09:45:01.670 ,4,1,0.,12.0,0.,12.0,0.,12.0,0.,12.0
1979-07-01 09:45:13.670 ,4,0,1.,12.0,0.,12.0,0.,12.0,0.,12.0
1979-07-01 09:45:25.670 ,4,0,0.,12.0,0.,12.0,0.,12.0,0.,12.0
1979-07-01 09:45:37.670 ,3,1,0.,12.0,0.,12.0,0.,12.0,0.,12.0
1979-07-01 09:45:49.670 ,3,1,0.,12.0,0.,12.0,0.,12.0,0.,12.0
1979-07-01 09:46:01.670 ,3,0,0.,12.0,0.,12.0,0.,12.0,0.,12.0
1979-07-01 09:46:13.670 ,3,0,0.,12.0,0.,12.0,0.,12.0,0.,12.0
1979-07-01 09:46:25.670 ,2,1,0.,12.0,0.,12.0,0.,12.0,0.,12.0
1979-07-01 09:46:37.670 ,2,1,0.,12.0,0.,12.0,0.,12.0,0.,12.0
1979-07-01 09:46:49.670 ,2,0,0.,12.0,0.,12.0,0.,12.0,0.,12.0
1979-07-01 09:47:01.670 ,2,0,0.,12.0,0.,12.0,0.,12.0,0.,12.0
1979-07-01 09:47:13.670 ,1,1,0.,12.0,0.,12.0,0.,12.0,0.,12.0
1979-07-01 09:47:25.670 ,1,1,0.,12.0,0.,12.0,0.,12.0,0.,12.0
1979-07-01 09:47:37.670 ,1,0,0.,12.0,0.,12.0,0.,12.0,1.,12.0
1979-07-01 09:47:49.670 ,1,0,0.,12.0,0.,12.0,0.,12.0,0.,12.0
1979-07-01 09:48:01.670 ,0,1,0.,12.0,0.,12.0,0.,12.0,0.,12.0
1979-07-01 09:48:13.670 ,0,1,0.,12.0,0.,12.0,0.,12.0,0.,12.0
1979-07-01 09:48:25.670 ,0,0,0.,12.0,0.,12.0,0.,12.0,0.,12.0
1979-07-01 09:48:37.670 ,0,0,0.,12.0,0.,12.0,0.,12.0,0.,12.0
1979-07-01 09:48:49.670 ,0,1,0.,12.0,0.,12.0,0.,12.0,0.,12.0
1979-07-01 09:49:01.670 ,0,1,0.,12.0,0.,12.0,0.,12.0,0.,12.0
1979-07-01 09:49:13.670 ,0,0,0.,12.0,0.,12.0,0.,12.0,0.,12.0
1979-07-01 09:49:25.670 ,0,0,0.,12.0,0.,12.0,0.,12.0,0.,12.0
1979-07-01 09:49:37.670 ,1,1,0.,12.0,0.,12.0,0.,12.0,0.,12.0
1979-07-01 09:49:49.670 ,1,1,0.,12.0,0.,12.0,0.,12.0,0.,12.0
1979-07-01 09:50:01.670 ,1,0,0.,12.0,0.,12.0,0.,12.0,0.,12.0
1979-07-01 09:50:13.670 ,1,0,0.,12.0,0.,12.0,0.,12.0,0.,12.0
1979-07-01 09:50:25.670 ,2,1,0.,12.0,0.,12.0,0.,12.0,0.,12.0
1979-07-01 09:50:37.670 ,2,1,0.,12.0,0.,12.0,0.,12.0,0.,12.0
1979-07-01 09:50:49.670 ,2,0,0.,12.0,0.,12.0,0.,12.0,0.,12.0
1979-07-01 09:51:01.670 ,2,0,0.,12.0,0.,12.0,0.,12.0,0.,12.0
1979-07-01 09:51:13.670 ,3,1,0.,12.0,0.,12.0,0.,12.0,0.,12.0
1979-07-01 09:51:25.670 ,3,1,0.,12.0,0.,12.0,0.,12.0,0.,12.0
1979-07-01 09:51:37.670 ,3,0,0.,12.0,0.,12.0,0.,12.0,0.,12.0
1979-07-01 09:51:49.670 ,3,0,0.,12.0,0.,12.0,0.,12.0,0.,12.0
1979-07-01 09:52:01.670 ,4,1,0.,12.0,0.,12.0,0.,12.0,0.,12.0
1979-07-01 09:52:13.670 ,4,1,0.,12.0,0.,12.0,0.,12.0,0.,12.0
1979-07-01 09:52:25.670 ,4,0,0.,12.0,0.,12.0,0.,12.0,0.,12.0
1979-07-01 09:52:37.670 ,4,0,0.,12.0,0.,12.0,0.,12.0,0.,12.0
1979-07-01 09:52:49.670 ,5,1,0.,12.0,0.,12.0,0.,12.0,0.,12.0
1979-07-01 09:53:01.670 ,5,1,0.,12.0,0.,12.0,0.,12.0,0.,12.0
1979-07-01 09:53:13.670 ,5,0,0.,12.0,0.,12.0,0.,12.0,0.,12.0
1979-07-01 09:53:25.670 ,5,0,0.,12.0,0.,12.0,0.,12.0,0.,12.0
1979-07-01 09:53:37.670 ,6,1,0.,12.0,0.,12.0,0.,12.0,0.,12.0
1979-07-01 09:53:49.670 ,6,1,1.,12.0,0.,12.0,0.,12.0,0.,12.0
1979-07-01 09:54:01.670 ,6,0,0.,12.0,0.,12.0,0.,12.0,0.,12.0
1979-07-01 09:54:13.670 ,6,0,0.,12.0,0.,12.0,0.,12.0,0.,12.0
1979-07-01 09:54:25.670 ,7,0,0.,12.0,0.,12.0,0.,12.0,0.,12.0
1979-07-01 09:54:37.670 ,7,0,0.,12.0,0.,12.0,0.,12.0,0.,12.0
1979-07-01 09:54:49.670 ,7,0,0.,12.0,0.,12.0,0.,12.0,0.,12.0
1979-07-01 09:55:01.670 ,7,0,0.,12.0,0.,12.0,0.,12.0,0.,12.0
1979-07-01 09:55:13.670 ,0,0,0.,12.0,0.,12.0,0.,12.0,0.,12.0
1979-07-01 09:55:25.670 ,0,0,0.,12.0,0.,12.0,0.,12.0,0.,12.0
1979-07-01 09:55:37.670 ,0,1,0.,12.0,0.,12.0,0.,12.0,0.,12.0
1979-07-01 09:55:49.670 ,0,1,0.,12.0,0.,12.0,0.,12.0,0.,12.0
1979-07-01 09:56:01.670 ,3,1,0.,12.0,0.,12.0,0.,12.0,0.,12.0
1979-07-01 09:56:13.670 ,3,1,0.,12.0,0.,12.0,0.,12.0,0.,12.0
1979-07-01 09:56:25.670 ,7,1,0.,12.0,0.,12.0,0.,12.0,0.,12.0
1979-07-01 09:56:37.670 ,7,1,0.,12.0,0.,12.0,0.,12.0,0.,12.0
1979-07-01 09:56:49.670 ,4,1,0.,12.0,0.,12.0,0.,12.0,0.,12.0
1979-07-01 09:57:01.670 ,4,1,0.,12.0,0.,12.0,0.,12.0,0.,12.0
1979-07-01 09:57:13.670 ,0,1,0.,12.0,0.,12.0,0.,12.0,0.,12.0
1979-07-01 09:57:25.670 ,0,1,0.,12.0,0.,12.0,0.,12.0,0.,12.0
1979-07-01 09:57:37.670 ,3,1,0.,12.0,0.,12.0,0.,12.0,0.,12.0
1979-07-01 09:57:49.670 ,3,1,0.,12.0,0.,12.0,0.,12.0,0.,12.0
1979-07-01 09:58:01.670 ,7,1,0.,12.0,0.,12.0,0.,12.0,0.,12.0
1979-07-01 09:58:13.670 ,7,1,0.,12.0,0.,12.0,0.,12.0,0.,12.0
1979-07-01 09:58:25.670 ,4,1,0.,12.0,0.,12.0,0.,12.0,0.,12.0
1979-07-01 09:58:37.670 ,4,1,0.,12.0,0.,12.0,0.,12.0,0.,12.0
1979-07-01 09:58:49.670 ,0,1,0.,12.0,0.,12.0,0.,12.0,0.,12.0
1979-07-01 09:59:01.670 ,0,1,0.,12.0,0.,12.0,0.,12.0,0.,12.0
1979-07-01 09:59:13.670 ,3,1,0.,12.0,0.,12.0,0.,12.0,0.,12.0
1979-07-01 09:59:25.670 ,3,1,0.,12.0,0.,12.0,0.,12.0,0.,12.0
1979-07-01 09:59:37.670 ,7,1,0.,12.0,0.,12.0,0.,12.0,0.,12.0
1979-07-01 09:59:49.670 ,7,1,0.,12.0,0.,12.0,0.,12.0,0.,12.0
1979-07-01 10:00:01.670 ,4,1,0.,12.0,0.,12.0,0.,12.0,0.,12.0
1979-07-01 10:00:13.670 ,4,1,0.,12.0,0.,12.0,0.,12.0,0.,12.0
1979-07-01 10:00:25.670 ,0,1,0.,12.0,0.,12.0,0.,12.0,0.,12.0
1979-07-01 10:00:37.670 ,0,1,0.,12.0,0.,12.0,0.,12.0,0.,12.0
1979-07-01 10:00:49.670 ,3,1,0.,12.0,0.,12.0,0.,12.0,0.,12.0
1979-07-01 10:01:01.670 ,3,1,0.,12.0,0.,12.0,0.,12.0,0.,12.0
1979-07-01 10:01:13.670 ,7,1,0.,12.0,0.,12.0,0.,12.0,0.,12.0
1979-07-01 10:01:25.670 ,7,1,0.,12.0,0.,12.0,0.,12.0,0.,12.0
1979-07-01 10:01:37.670 ,4,1,0.,12.0,0.,12.0,0.,12.0,0.,12.0
1979-07-01 10:01:49.670 ,4,1,0.,12.0,0.,12.0,0.,12.0,0.,12.0
1979-07-01 10:02:01.670 ,0,1,0.,12.0,0.,12.0,0.,12.0,0.,12.0
1979-07-01 10:02:13.670 ,0,1,0.,12.0,0.,12.0,0.,12.0,0.,12.0
1979-07-01 10:02:25.670 ,3,1,0.,12.0,0.,12.0,0.,12.0,0.,12.0
1979-07-01 10:02:37.670 ,3,1,0.,12.0,0.,12.0,0.,12.0,0.,12.0
1979-07-01 10:02:49.670 ,7,1,0.,12.0,0.,12.0,0.,12.0,0.,12.0
1979-07-01 10:03:01.670 ,7,1,0.,12.0,0.,12.0,0.,12.0,0.,12.0
1979-07-01 10:03:13.670 ,4,1,0.,12.0,0.,12.0,0.,12.0,0.,12.0
1979-07-01 10:03:25.670 ,4,1,0.,12.0,0.,12.0,0.,12.0,0.,12.0
1979-07-01 10:03:37.670 ,0,1,0.,12.0,0.,12.0,0.,12.0,0.,12.0
1979-07-01 10:03:49.670 ,0,1,0.,12.0,0.,12.0,0.,12.0,0.,12.0
1979-07-01 10:04:01.670 ,3,1,0.,12.0,0.,12.0,0.,12.0,0.,12.0
1979-07-01 10:04:13.670 ,3,1,0.,12.0,0.,12.0,0.,12.0,0.,12.0
1979-07-01 10:04:25.670 ,7,1,0.,12.0,0.,12.0,0.,12.0,0.,12.0
1979-07-01 10:04:37.670 ,7,1,0.,12.0,0.,12.0,0.,12.0,0.,12.0
1979-07-01 10:04:49.670 ,4,1,0.,12.0,0.,12.0,0.,12.0,0.,12.0
1979-07-01 10:05:01.670 ,4,1,0.,12.0,0.,12.0,0.,12.0,0.,12.0
1979-07-01 10:05:13.670 ,0,1,0.,12.0,0.,12.0,0.,12.0,0.,12.0
1979-07-01 10:05:25.670 ,0,1,0.,12.0,0.,12.0,0.,12.0,0.,12.0
1979-07-01 10:05:37.670 ,0,0,0.,12.0,0.,12.0,0.,12.0,0.,12.0
1979-07-01 10:05:49.670 ,0,0,0.,12.0,0.,12.0,0.,12.0,0.,12.0
1979-07-01 10:06:01.670 ,0,0,0.,12.0,0.,12.0,0.,12.0,0.,12.0
1979-07-01 10:06:13.670 ,0,0,0.,12.0,0.,12.0,0.,12.0,0.,12.0
1979-07-01 10:06:25.670 ,5,1,0.,12.0,0.,12.0,0.,12.0,0.,12.0
1979-07-01 10:06:37.670 ,5,1,0.,12.0,0.,12.0,0.,12.0,0.,12.0
1979-07-01 10:06:49.670 ,5,0,0.,12.0,0.,12.0,0.,12.0,0.,12.0
1979-07-01 10:07:01.670 ,5,0,0.,12.0,0.,12.0,0.,12.0,0.,12.0
1979-07-01 10:07:13.670 ,4,1,0.,12.0,0.,12.0,0.,12.0,0.,12.0
1979-07-01 10:07:25.670 ,4,1,0.,12.0,0.,12.0,0.,12.0,0.,12.0
1979-07-01 10:07:37.670 ,4,0,0.,12.0,0.,12.0,0.,12.0,0.,12.0
1979-07-01 10:07:49.670 ,4,0,0.,12.0,0.,12.0,0.,12.0,0.,12.0
1979-07-01 10:08:01.670 ,3,1,0.,12.0,0.,12.0,0.,12.0,0.,12.0
1979-07-01 10:08:13.670 ,3,1,0.,12.0,0.,12.0,0.,12.0,0.,12.0
1979-07-01 10:08:25.670 ,3,0,0.,12.0,0.,12.0,0.,12.0,0.,12.0
1979-07-01 10:08:37.670 ,3,0,0.,12.0,0.,12.0,0.,12.0,0.,12.0
1979-07-01 10:08:49.670 ,2,1,0.,12.0,0.,12.0,0.,12.0,0.,12.0
1979-07-01 10:09:01.670 ,2,1,0.,12.0,0.,12.0,0.,12.0,0.,12.0
1979-07-01 10:09:13.670 ,2,0,0.,12.0,0.,12.0,0.,12.0,0.,12.0
1979-07-01 10:09:25.670 ,2,0,0.,12.0,0.,12.0,0.,12.0,0.,12.0
1979-07-01 10:09:37.670 ,1,1,0.,12.0,0.,12.0,0.,12.0,0.,12.0
1979-07-01 10:09:49.670 ,1,1,0.,12.0,0.,12.0,0.,12.0,0.,12.0
1979-07-01 10:10:01.670 ,1,0,0.,12.0,0.,12.0,0.,12.0,0.,12.0
1979-07-01 10:10:13.670 ,1,0,0.,12.0,0.,12.0,0.,12.0,0.,12.0
1979-07-01 10:10:25.670 ,0,1,0.,12.0,0.,12.0,0.,12.0,0.,12.0
1979-07-01 10:10:37.670 ,0,1,0.,12.0,0.,12.0,0.,12.0,0.,12.0
1979-07-01 10:10:49.670 ,0,0,0.,12.0,0.,12.0,0.,12.0,0.,12.0
1979-07-01 10:11:01.670 ,0,0,0.,12.0,0.,12.0,0.,12.0,0.,12.0
1979-07-01 10:11:13.670 ,0,1,0.,12.0,0.,12.0,0.,12.0,0.,12.0
1979-07-01 10:11:25.670 ,0,1,0.,12.0,0.,12.0,0.,12.0,0.,12.0
1979-07-01 10:11:37.670 ,0,0,0.,12.0,0.,12.0,0.,12.0,0.,12.0
1979-07-01 10:11:49.670 ,0,0,0.,12.0,0.,12.0,0.,12.0,0.,12.0
1979-07-01 10:12:01.670 ,1,1,0.,12.0,0.,12.0,0.,12.0,0.,12.0
1979-07-01 10:12:13.670 ,1,1,0.,12.0,0.,12.0,0.,12.0,0.,12.0
1979-07-01 10:12:25.670 ,1,0,0.,12.0,0.,12.0,0.,12.0,0.,12.0
1979-07-01 10:12:37.670 ,1,0,0.,12.0,0.,12.0,0.,12.0,0.,12.0
1979-07-01 10:12:49.670 ,2,1,0.,12.0,0.,12.0,0.,12.0,0.,12.0
1979-07-01 10:13:01.670 ,2,1,0.,12.0,0.,12.0,0.,12.0,0.,12.0
1979-07-01 10:13:13.670 ,2,0,0.,12.0,0.,12.0,0.,12.0,0.,12.0
1979-07-01 10:13:25.670 ,2,0,0.,12.0,0.,12.0,0.,12.0,0.,12.0
1979-07-01 10:13:37.670 ,3,1,0.,12.0,0.,12.0,0.,12.0,0.,12.0
1979-07-01 10:13:49.670 ,3,1,0.,12.0,0.,12.0,0.,12.0,0.,12.0
1979-07-01 10:14:01.670 ,3,0,1.,12.0,0.,12.0,0.,12.0,0.,12.0
1979-07-01 10:14:13.670 ,3,0,0.,12.0,0.,12.0,0.,12.0,0.,12.0
1979-07-01 10:14:25.670 ,4,1,0.,12.0,0.,12.0,0.,12.0,0.,12.0
1979-07-01 10:14:37.670 ,4,1,0.,12.0,0.,12.0,0.,12.0,0.,12.0
1979-07-01 10:14:49.670 ,4,0,0.,12.0,0.,12.0,0.,12.0,0.,12.0
1979-07-01 10:15:01.670 ,4,0,0.,12.0,0.,12.0,0.,12.0,0.,12.0
1979-07-01 10:15:13.670 ,5,1,0.,12.0,0.,12.0,0.,12.0,0.,12.0
1979-07-01 10:15:25.670 ,5,1,0.,12.0,0.,12.0,0.,12.0,0.,12.0
1979-07-01 10:15:37.670 ,5,0,0.,12.0,0.,12.0,0.,12.0,0.,12.0
1979-07-01 10:15:49.670 ,5,0,0.,12.0,0.,12.0,0.,12.0,0.,12.0
1979-07-01 10:16:01.670 ,6,1,0.,12.0,0.,12.0,0.,12.0,0.,12.0
1979-07-01 10:16:13.670 ,6,1,0.,12.0,0.,12.0,0.,12.0,0.,12.0
1979-07-01 10:16:25.670 ,6,0,0.,12.0,0.,12.0,0.,12.0,0.,12.0
1979-07-01 10:16:37.670 ,6,0,0.,12.0,0.,12.0,0.,12.0,0.,12.0
1979-07-01 10:16:49.670 ,7,1,0.,12.0,0.,12.0,0.,12.0,0.,12.0
1979-07-01 10:17:01.670 ,7,1,0.,12.0,0.,12.0,0.,12.0,0.,12.0
1979-07-01 10:17:13.670 ,7,0,0.,12.0,0.,12.0,0.,12.0,0.,12.0
1979-07-01 10:17:25.670 ,7,0,0.,12.0,0.,12.0,0.,12.0,0.,12.0
1979-07-01 10:17:37.670 ,7,1,0.,12.0,0.,12.0,0.,12.0,0.,12.0
1979-07-01 10:17:49.670 ,7,1,0.,12.0,0.,12.0,0.,12.0,0.,12.0
1979-07-01 10:18:01.670 ,7,0,0.,12.0,0.,12.0,0.,12.0,0.,12.0
1979-07-01 10:18:13.670 ,7,0,0.,12.0,0.,12.0,0.,12.0,0.,12.0